Weather in Elban

Russia / Khabarovsk Krai     50°05′32″N   136°30′15″E
temp.,
°C
wind,
m/s
gust,
m/s
humid.,
%
clouds,
%
prec.,
mm/h
press.,
hPa
HPBL,
m
27 november, sat
sat2701:00−15sw119872 0.0 10239
04:00−16sw219994 0.0 102414
07:00−17ssw2310094 0.0 102535
10:00−14ssw269890 0.0 1026134
13:00−9ssw3593100 0.0 1025310
16:00−9ssw369695 0.1 1026244
19:00−15sw1110098 0.0 102715
22:00−14sw2499100 0.1 102885
28 november, sun
sun2801:00−12ssw289799 0.1 1028254
04:00−13ssw3896100 0.3 1028277
07:00−15sw379899 0.1 1028190
10:00−14sw3897100 0.1 1028278
13:00−11sw41092100 0.0 1025450
16:00−10wsw3109499 0.1 1023391
19:00−14wsw2299100 0.0 102122
22:00−13sw2298100 0.0 102034
29 november, mon
mon2901:00−11sw1397100 0.0 1018106
04:00−13nnw1198100 0.0 101714
07:00−10ne1296100 0.6 1016106
10:00−9ene2595100 2.4 1017275
13:00−8ene128999 0.4 1018313
16:00−9ssw129559 0.4 102067
19:00−15w119984 0.0 102312
22:00−14wsw119898 0.1 102413
30 november, tue
tue3001:00−16ssw1198100 0.2 102526
04:00−14sw1497100 0.4 1025142
07:00−16ssw1199100 0.1 102412
10:00−14ssw2496100 0.1 1023177
13:00−12ssw239299 0.0 1021251
16:00−12ssw1196100 0.0 101913
19:00−13nne2396100 0.0 101768
22:00−11ne41091100 0.0 1015288
1 december, wed
wed101:00−10ne71584100 0.0 1011517
04:00−10nne101886100 0.3 1007786
07:00−10nne102090100 2.4 1003835
10:00−9nne112090100 5.1 1001884
13:00−8nne111984100 1.3 996999
16:00−8nne122274100 1.5 9911142
19:00−8n102085100 2.5 9901266
22:00−8n81781100 3.9 9891211